When you browse on this site, cookies collect data to enhance your experience and personalize the content and advertising you see.
Visit our Privacy Policy to learn more. By continuing to use the site, you agree to this use of cookies and data.
  • In Romania
  • List of Countries
  • For 7 days
  • Water Temperature
  • Satellite Maps
  • Weather Map
  • Weather Widgets
  • user-avatar
    Login

    Hourly Weather Bobin

    Today, 17 June, Monday

    Time Temperature Precipitation Wind Pressure Humidity
    00:00 +18°C° 0 mm 3 mps 746 mmHg 92%
    01:00 +18°C° 0 mm 3 mps 747 mmHg 91%
    02:00 +18°C° 0 mm 3 mps 747 mmHg 90%
    03:00 +18°C° 0 mm 2 mps 747 mmHg 90%
    04:00 +18°C° 0 mm 1 mps 747 mmHg 89%
    05:00 +18°C° 0 mm 2 mps 747 mmHg 85%
    06:00 +18°C° 0 mm 2 mps 747 mmHg 81%
    07:00 +18°C° 0 mm 3 mps 748 mmHg 76%
    08:00 +19°C° 0 mm 3 mps 748 mmHg 70%
    09:00 +21°C° 0 mm 3 mps 748 mmHg 64%
    10:00 +22°C° 0 mm 3 mps 748 mmHg 58%
    11:00 +22°C° 0 mm 3 mps 748 mmHg 56%
    12:00 +24°C° 0 mm 3 mps 747 mmHg 55%
    13:00 +25°C° 0 mm 2 mps 747 mmHg 53%
    14:00 +25°C° 0 mm 2 mps 747 mmHg 55%
    15:00 +25°C° 0 mm 2 mps 747 mmHg 56%
    16:00 +25°C° 0 mm 2 mps 747 mmHg 58%
    17:00 +24°C° 0 mm 2 mps 747 mmHg 63%
    18:00 +23°C° 0 mm 2 mps 747 mmHg 69%
    19:00 +21°C° 0 mm 2 mps 747 mmHg 75%
    20:00 +20°C° 0 mm 2 mps 747 mmHg 77%
    21:00 +19°C° 0 mm 2 mps 747 mmHg 80%
    22:00 +18°C° 0 mm 2 mps 747 mmHg 83%
    23:00 +18°C° 0 mm 2 mps 747 mmHg 86%

    Tomorrow, 18 June, Tuesday

    Time Temperature Precipitation Wind Pressure Humidity
    00:00 +17°C° 0 mm 2 mps 747 mmHg 89%
    01:00 +17°C° 0 mm 2 mps 747 mmHg 92%
    02:00 +17°C° 0 mm 2 mps 747 mmHg 93%
    03:00 +16°C° 0 mm 2 mps 746 mmHg 94%
    04:00 +16°C° 0 mm 2 mps 746 mmHg 95%
    05:00 +17°C° 0 mm 2 mps 746 mmHg 91%
    06:00 +18°C° 0 mm 3 mps 747 mmHg 87%
    07:00 +19°C° 0 mm 3 mps 747 mmHg 84%
    08:00 +20°C° 0 mm 3 mps 747 mmHg 83%
    09:00 +20°C° 0 mm 3 mps 747 mmHg 81%
    10:00 +21°C° 0 mm 3 mps 746 mmHg 80%
    11:00 +21°C° 0 mm 4 mps 746 mmHg 78%
    12:00 +22°C° 0 mm 4 mps 746 mmHg 75%
    13:00 +23°C° 0 mm 4 mps 745 mmHg 73%
    14:00 +23°C° 0 mm 4 mps 745 mmHg 75%
    15:00 +23°C° 0 mm 4 mps 745 mmHg 77%
    16:00 +23°C° 0 mm 4 mps 745 mmHg 79%
    17:00 +22°C° 0 mm 4 mps 744 mmHg 82%
    18:00 +22°C° 0 mm 4 mps 744 mmHg 84%
    19:00 +22°C° 0 mm 4 mps 744 mmHg 87%
    20:00 +21°C° 0.1 mm 4 mps 744 mmHg 89%
    21:00 +21°C° 0.1 mm 4 mps 744 mmHg 90%
    22:00 +20°C° 0.1 mm 4 mps 744 mmHg 92%
    23:00 +20°C° 0.3 mm 3 mps 744 mmHg 93%

    Day after tomorrow, 19 June, Wednesday

    Time Temperature Precipitation Wind Pressure Humidity
    00:00 +19°C° 0.3 mm 3 mps 743 mmHg 94%
    01:00 +19°C° 0.3 mm 2 mps 743 mmHg 95%
    02:00 +19°C° 0.1 mm 2 mps 743 mmHg 96%
    03:00 +18°C° 0.1 mm 2 mps 743 mmHg 96%
    04:00 +19°C° 0.1 mm 1 mps 742 mmHg 97%
    05:00 +20°C° 0 mm 1 mps 742 mmHg 93%
    06:00 +22°C° 0 mm 1 mps 742 mmHg 89%
    07:00 +23°C° 0 mm 1 mps 743 mmHg 85%
    08:00 +24°C° 0.1 mm 1 mps 742 mmHg 79%
    09:00 +24°C° 0.1 mm 0 mps 742 mmHg 73%
    10:00 +26°C° 0.1 mm 0 mps 742 mmHg 66%
    11:00 +27°C° 0.1 mm 0 mps 742 mmHg 62%
    12:00 +29°C° 0.1 mm 1 mps 742 mmHg 58%
    13:00 +30°C° 0.1 mm 1 mps 742 mmHg 54%
    14:00 +28°C° 1.6 mm 2 mps 741 mmHg 65%
    15:00 +26°C° 1.6 mm 3 mps 741 mmHg 76%
    16:00 +22°C° 1.6 mm 5 mps 741 mmHg 86%
    17:00 +22°C° 0.2 mm 3 mps 741 mmHg 84%
    18:00 +23°C° 0.2 mm 2 mps 741 mmHg 83%
    19:00 +23°C° 0.2 mm 1 mps 741 mmHg 81%
    20:00 +22°C° 0 mm 1 mps 741 mmHg 83%
    21:00 +22°C° 0 mm 1 mps 741 mmHg 85%
    22:00 +21°C° 0 mm 1 mps 741 mmHg 86%
    23:00 +21°C° 0 mm 1 mps 741 mmHg 87%

    20 June, Thursday

    Time Temperature Precipitation Wind Pressure Humidity
    00:00 +20°C° 0 mm 1 mps 741 mmHg 87%
    01:00 +18°C° 0 mm 0 mps 741 mmHg 88%
    02:00 +18°C° 0 mm 0 mps 741 mmHg 88%
    03:00 +18°C° 0 mm 0 mps 741 mmHg 87%
    04:00 +18°C° 0 mm 0 mps 741 mmHg 87%
    05:00 +19°C° 0.2 mm 0 mps 741 mmHg 84%
    06:00 +20°C° 0.2 mm 0 mps 741 mmHg 82%
    07:00 +22°C° 0.2 mm 0 mps 741 mmHg 79%
    08:00 +25°C° 0.1 mm 1 mps 742 mmHg 75%
    09:00 +26°C° 0.1 mm 1 mps 742 mmHg 70%
    10:00 +28°C° 0.1 mm 1 mps 742 mmHg 66%
    11:00 +29°C° 0.3 mm 1 mps 742 mmHg 63%
    12:00 +29°C° 0.3 mm 1 mps 741 mmHg 60%
    13:00 +30°C° 0.3 mm 1 mps 741 mmHg 57%
    14:00 +30°C° 1.1 mm 1 mps 741 mmHg 60%
    15:00 +30°C° 1.1 mm 1 mps 741 mmHg 62%
    16:00 +29°C° 1.1 mm 1 mps 741 mmHg 64%
    17:00 +28°C° 0.6 mm 1 mps 741 mmHg 70%
    18:00 +27°C° 0.6 mm 1 mps 741 mmHg 75%
    19:00 +25°C° 0.6 mm 2 mps 741 mmHg 80%
    20:00 +24°C° 0.6 mm 1 mps 741 mmHg 83%
    21:00 +23°C° 0.6 mm 1 mps 741 mmHg 86%
    22:00 +22°C° 0.6 mm 1 mps 742 mmHg 89%
    23:00 +21°C° 0.1 mm 1 mps 741 mmHg 90%

    21 June, Friday

    Time Temperature Precipitation Wind Pressure Humidity
    00:00 +21°C° 0.1 mm 1 mps 741 mmHg 90%
    01:00 +18°C° 0.1 mm 0 mps 741 mmHg 91%
    02:00 +20°C° 0 mm 1 mps 741 mmHg 91%
    03:00 +20°C° 0 mm 1 mps 741 mmHg 92%
    04:00 +20°C° 0 mm 1 mps 741 mmHg 92%
    05:00 +21°C° 0 mm 1 mps 741 mmHg 88%
    06:00 +23°C° 0 mm 1 mps 741 mmHg 85%
    07:00 +24°C° 0 mm 1 mps 742 mmHg 81%
    08:00 +26°C° 0 mm 1 mps 742 mmHg 75%
    09:00 +27°C° 0 mm 1 mps 742 mmHg 69%
    10:00 +29°C° 0 mm 1 mps 742 mmHg 63%
    11:00 +29°C° 0 mm 1 mps 741 mmHg 60%
    12:00 +30°C° 0 mm 1 mps 741 mmHg 57%
    13:00 +31°C° 0 mm 1 mps 741 mmHg 53%
    14:00 +30°C° 0.3 mm 2 mps 741 mmHg 58%
    15:00 +29°C° 0.3 mm 2 mps 741 mmHg 62%
    16:00 +28°C° 0.3 mm 3 mps 741 mmHg 67%
    17:00 +26°C° 1.3 mm 3 mps 741 mmHg 74%
    18:00 +24°C° 1.3 mm 3 mps 741 mmHg 80%
    19:00 +21°C° 1.3 mm 3 mps 741 mmHg 87%
    20:00 +20°C° 0.7 mm 3 mps 741 mmHg 88%
    21:00 +20°C° 0.7 mm 2 mps 741 mmHg 88%
    22:00 +21°C° 0.7 mm 1 mps 741 mmHg 89%
    23:00 +21°C° 0.1 mm 1 mps 741 mmHg 89%

    22 June, Saturday

    Time Temperature Precipitation Wind Pressure Humidity
    00:00 +21°C° 0.1 mm 1 mps 741 mmHg 89%
    01:00 +20°C° 0.1 mm 1 mps 741 mmHg 89%
    02:00 +18°C° 0 mm 0 mps 741 mmHg 89%
    03:00 +18°C° 0 mm 0 mps 741 mmHg 90%
    04:00 +18°C° 0 mm 0 mps 741 mmHg 90%
    05:00 +19°C° 0 mm 0 mps 741 mmHg 87%
    06:00 +22°C° 0 mm 1 mps 741 mmHg 83%
    07:00 +24°C° 0 mm 1 mps 741 mmHg 80%
    08:00 +25°C° 0.1 mm 1 mps 741 mmHg 75%
    09:00 +24°C° 0.1 mm 0 mps 741 mmHg 71%
    10:00 +26°C° 0.1 mm 0 mps 741 mmHg 66%
    11:00 +28°C° 0.2 mm 1 mps 741 mmHg 62%
    12:00 +29°C° 0.2 mm 1 mps 741 mmHg 59%
    13:00 +30°C° 0.2 mm 1 mps 741 mmHg 55%
    14:00 +30°C° 0 mm 1 mps 740 mmHg 55%
    15:00 +30°C° 0 mm 1 mps 740 mmHg 55%
    16:00 +30°C° 0 mm 1 mps 740 mmHg 54%
    17:00 +29°C° 0.2 mm 1 mps 740 mmHg 61%
    18:00 +28°C° 0.2 mm 1 mps 740 mmHg 67%
    19:00 +26°C° 0.2 mm 1 mps 740 mmHg 73%
    20:00 +25°C° 0.9 mm 1 mps 740 mmHg 77%
    21:00 +24°C° 0.9 mm 1 mps 740 mmHg 81%
    22:00 +22°C° 0.9 mm 1 mps 741 mmHg 85%
    23:00 +22°C° 0.1 mm 1 mps 741 mmHg 86%
    Show more